Welcome to the New NWS' Forecast!
Most changes are behind the scenes, but click here for differences you might notice.

Terminal Aerodrome Forecast (TAF)

Issued by National Weather Service (NWS)

                            
000
FTUS42 KKEY 170658 AAA
TAFEYW
TAF AMD
KEYW 170658Z 1707/1806 10015G22KT P6SM VCSH SCT025=